Location: Ch�risy
(50.2331°N, 2.9131°E)
Time: 23:58:30
(UTC+00:00)

Cosmos 2263 Rocket - Pass Details

Date: 17 January 2021
Orbit: 825 x 847 km, 71.0° (Epoch: 01 March)

Event Time Altitude Azimuth Distance (km) Brightness Sun altitude
Rises 18:04:32 0° 210° (SSW) 3,397 6.0 -16.6°
Reaches altitude 10° 18:06:59 10° 211° (SSW) 2,465 5.2 -17.0°
Maximum altitude 18:12:39 83° 299° (WNW) 858 2.2 -17.9°
Enters shadow 18:17:19 16° 27° (NNE) 2,087 3.9 -18.6°
